Location: ?astrovice
(49.6513°N, 14.9287°E)
Time: 17:59:21
(UTC+00:00)

SPOT 5 - Pass Details

Date: 09 April 2020
Orbit: 624 x 814 km, 98.3° (Epoch: 29 May)

Event Time Altitude Azimuth Distance (km) Brightness Sun altitude
Exits shadow 20:31:38 80° 76° (ENE) 641 2.4 -23.7°
Maximum altitude 20:31:39 80° 75° (ENE) 641 2.4 -23.7°
Drops below altitude 10° 20:36:00 10° 348° (NNW) 2,012 6.0 -24.2°
Sets 20:38:12 0° 347° (NNW) 2,932 7.0 -24.4°
